This is the latest recevied weather packets stored in our database for station/object KG5EO. If no packets are shown the sender has not sent any weather packets the latest 10 day(s).
| Time | Temp. | Humidity | Pressure | Rain* | Wind** | Luminosity | Snow |
|---|---|---|---|---|---|---|---|
| 1777402867 | 26.11° C | 21% | 41.2 hPa | 0 mm | - | - | - |
| 1777402566 | 26.11° C | 21% | 41.2 hPa | 0 mm | - | - | - |
| 1777402266 | 26.67° C | 22% | 41.2 hPa | 0 mm | - | - | - |
| 1777401968 | 26.11° C | 24% | 41.2 hPa | 0 mm | - | - | - |
| 1777401665 | 25.56° C | 23% | 41.2 hPa | 0 mm | - | - | - |
| 1777401365 | 26.11° C | 21% | 41.2 hPa | 0 mm | - | - | - |
| 1777401067 | 26.11° C | 25% | 41.2 hPa | 0 mm | - | - | - |
| 1777400765 | 25.56° C | 22% | 41.2 hPa | 0 mm | - | - | - |
| 1777400465 | 25.56° C | 22% | 41.2 hPa | 0 mm | - | - | - |
| 1777400167 | 25.56° C | 23% | 41.2 hPa | 0 mm | - | - | - |
| 1777399864 | 25.56° C | 23% | 41.2 hPa | 0 mm | - | - | - |
| 1777399564 | 25° C | 26% | 41.2 hPa | 0 mm | - | - | - |
| 1777399268 | 25° C | 23% | 41.2 hPa | 0 mm | - | - | - |
| 1777398964 | 25° C | 25% | 41.2 hPa | 0 mm | - | - | - |
| 1777398664 | 25.56° C | 25% | 41.2 hPa | 0 mm | - | - | - |
| 1777398366 | 25° C | 24% | 41.2 hPa | 0 mm | - | - | - |
| 1777398063 | 25° C | 24% | 41.2 hPa | 0 mm | - | - | - |
| 1777397764 | 25° C | 23% | 41.2 hPa | 0 mm | - | - | - |
| 1777397465 | 25.56° C | 22% | 41.2 hPa | 0 mm | - | - | - |
| 1777397163 | 25° C | 25% | 41.2 hPa | 0 mm | - | - | - |
| 1777396864 | 24.44° C | 23% | 41.2 hPa | 0 mm | - | - | - |
| 1777396565 | 23.89° C | 24% | 41.2 hPa | 0 mm | - | - | - |
| 1777396265 | 23.89° C | 26% | 41.2 hPa | 0 mm | - | - | - |
| 1777395963 | 24.44° C | 24% | 41.2 hPa | 0 mm | - | - | - |
| 1777395664 | 23.89° C | 28% | 41.2 hPa | 0 mm | - | - | - |
* Rain latest hour (hover to see other rain measurements)
** Current wind speed in m/s (hover to see current wind gust speed)